Time,TemperatureF,DewpointF,PressureIn,WindDirection,WindDirectionDegrees,WindSpeedMPH,WindSpeedGustMPH,Humidity,HourlyPrecipIn,Conditions,Clouds,dailyrainin,SoftwareType,DateUTC
2013-03-08 00:00:00,42.0,-99.9,30.13,North,10,4.0,7.0,-999,-99.99,,,-99.99,,2013-03-08 08:00:00,
2013-03-08 00:52:00,42.0,-99.9,30.13,North,10,4.0,7.0,-999,-99.99,,,-99.99,,2013-03-08 08:52:00,
2013-03-08 01:00:00,42.0,-99.9,30.12,SE,140,2.0,2.0,-999,-99.99,,,-99.99,,2013-03-08 09:00:00,
2013-03-08 01:52:00,42.0,-99.9,30.12,SE,140,2.0,2.0,-999,-99.99,,,-99.99,,2013-03-08 09:52:00,
2013-03-08 02:00:00,42.0,-99.9,30.11,North,350,2.0,2.0,-999,-99.99,,,-99.99,,2013-03-08 10:00:00,
2013-03-08 02:52:00,42.0,-99.9,30.11,North,350,2.0,2.0,-999,-99.99,,,-99.99,,2013-03-08 10:52:00,
2013-03-08 03:00:00,41.0,-99.9,30.10,NNW,330,0.0,0.0,-999,-99.99,,,-99.99,,2013-03-08 11:00:00,
2013-03-08 03:52:00,41.0,-99.9,30.10,NNW,330,0.0,0.0,-999,-99.99,,,-99.99,,2013-03-08 11:52:00,
2013-03-08 04:00:00,41.0,-99.9,30.11,North,350,9.0,11.0,-999,-99.99,,,-99.99,,2013-03-08 12:00:00,
2013-03-08 04:53:00,41.0,-99.9,30.11,North,350,9.0,11.0,-999,-99.99,,,-99.99,,2013-03-08 12:53:00,
2013-03-08 05:00:00,41.0,-99.9,30.11,NNW,340,7.0,9.0,-999,-99.99,,,-99.99,,2013-03-08 13:00:00,
2013-03-08 05:52:00,41.0,-99.9,30.11,NNW,340,7.0,9.0,-999,-99.99,,,-99.99,,2013-03-08 13:52:00,
2013-03-08 06:00:00,41.0,-99.9,30.13,NNW,340,9.0,9.0,-999,-99.99,,,-99.99,,2013-03-08 14:00:00,
2013-03-08 06:53:00,41.0,-99.9,30.13,NNW,340,9.0,9.0,-999,-99.99,,,-99.99,,2013-03-08 14:53:00,
2013-03-08 07:00:00,41.0,-99.9,30.13,NNW,340,4.0,7.0,-999,-99.99,,,-99.99,,2013-03-08 15:00:00,
2013-03-08 07:53:00,41.0,-99.9,30.13,NNW,340,4.0,7.0,-999,-99.99,,,-99.99,,2013-03-08 15:53:00,
2013-03-08 08:00:00,42.0,-99.9,30.13,North,360,2.0,2.0,-999,-99.99,,,-99.99,,2013-03-08 16:00:00,
2013-03-08 08:52:00,42.0,-99.9,30.13,North,360,2.0,2.0,-999,-99.99,,,-99.99,,2013-03-08 16:52:00,
2013-03-08 09:00:00,43.0,-99.9,30.14,North,350,4.0,4.0,-999,-99.99,,,-99.99,,2013-03-08 17:00:00,
2013-03-08 09:52:00,43.0,-99.9,30.14,North,350,4.0,4.0,-999,-99.99,,,-99.99,,2013-03-08 17:52:00,
2013-03-08 10:00:00,44.0,-99.9,30.15,West,260,2.0,2.0,-999,-99.99,,,-99.99,,2013-03-08 18:00:00,
2013-03-08 10:52:00,44.0,-99.9,30.15,West,260,2.0,2.0,-999,-99.99,,,-99.99,,2013-03-08 18:52:00,
2013-03-08 11:00:00,44.0,-99.9,30.15,West,280,7.0,9.0,-999,-99.99,,,-99.99,,2013-03-08 19:00:00,
2013-03-08 11:52:00,44.0,-99.9,30.15,West,280,7.0,9.0,-999,-99.99,,,-99.99,,2013-03-08 19:52:00,
2013-03-08 12:00:00,44.0,-99.9,30.15,West,260,4.0,7.0,-999,-99.99,,,-99.99,,2013-03-08 20:00:00,
2013-03-08 12:53:00,44.0,-99.9,30.15,West,260,4.0,7.0,-999,-99.99,,,-99.99,,2013-03-08 20:53:00,
2013-03-08 13:00:00,45.0,-99.9,30.14,West,260,7.0,7.0,-999,-99.99,,,-99.99,,2013-03-08 21:00:00,
2013-03-08 13:52:00,45.0,-99.9,30.14,West,260,7.0,7.0,-999,-99.99,,,-99.99,,2013-03-08 21:52:00,
2013-03-08 14:00:00,45.0,-99.9,30.15,West,270,7.0,9.0,-999,-99.99,,,-99.99,,2013-03-08 22:00:00,
2013-03-08 14:53:00,45.0,-99.9,30.15,West,270,7.0,9.0,-999,-99.99,,,-99.99,,2013-03-08 22:53:00,
2013-03-08 15:00:00,46.0,-99.9,30.15,West,260,9.0,11.0,-999,-99.99,,,-99.99,,2013-03-08 23:00:00,
2013-03-08 15:53:00,46.0,-99.9,30.15,West,260,9.0,11.0,-999,-99.99,,,-99.99,,2013-03-08 23:53:00,
2013-03-08 16:00:00,46.0,-99.9,30.14,West,260,11.0,13.0,-999,-99.99,,,-99.99,,2013-03-09 00:00:00,
2013-03-08 16:52:00,46.0,-99.9,30.14,West,260,11.0,13.0,-999,-99.99,,,-99.99,,2013-03-09 00:52:00,
2013-03-08 17:00:00,46.0,-99.9,30.15,West,270,9.0,11.0,-999,-99.99,,,-99.99,,2013-03-09 01:00:00,
2013-03-08 17:52:00,46.0,-99.9,30.15,West,270,9.0,11.0,-999,-99.99,,,-99.99,,2013-03-09 01:52:00,
2013-03-08 18:00:00,46.0,-99.9,30.17,West,280,9.0,11.0,-999,-99.99,,,-99.99,,2013-03-09 02:00:00,
2013-03-08 18:52:00,46.0,-99.9,30.17,West,280,9.0,11.0,-999,-99.99,,,-99.99,,2013-03-09 02:52:00,
2013-03-08 19:00:00,46.0,-99.9,30.19,WNW,290,11.0,13.0,-999,-99.99,,,-99.99,,2013-03-09 03:00:00,
2013-03-08 19:52:00,46.0,-99.9,30.19,WNW,290,11.0,13.0,-999,-99.99,,,-99.99,,2013-03-09 03:52:00,
2013-03-08 20:00:00,46.0,-99.9,30.20,West,280,9.0,11.0,-999,-99.99,,,-99.99,,2013-03-09 04:00:00,
2013-03-08 20:52:00,46.0,-99.9,30.20,West,280,9.0,11.0,-999,-99.99,,,-99.99,,2013-03-09 04:52:00,
2013-03-08 21:00:00,45.0,-99.9,30.21,NNW,330,7.0,9.0,-999,-99.99,,,-99.99,,2013-03-09 05:00:00,
2013-03-08 21:53:00,45.0,-99.9,30.21,NNW,330,7.0,9.0,-999,-99.99,,,-99.99,,2013-03-09 05:53:00,
2013-03-08 22:00:00,45.0,-99.9,30.22,NNW,340,7.0,9.0,-999,-99.99,,,-99.99,,2013-03-09 06:00:00,
2013-03-08 22:52:00,45.0,-99.9,30.22,NNW,340,7.0,9.0,-999,-99.99,,,-99.99,,2013-03-09 06:52:00,
2013-03-08 23:00:00,43.0,-99.9,30.24,North,350,4.0,4.0,-999,-99.99,,,-99.99,,2013-03-09 07:00:00,
2013-03-08 23:52:00,43.0,-99.9,30.24,North,350,4.0,4.0,-999,-99.99,,,-99.99,,2013-03-09 07:52:00,